ZKMAN SCEL-SCSE

Flight info

Callsign ZKMAN
Flight time 0h 56m
Altitude 24000
Route DONTI1J DONTI UQ802 KUGAP KUGAP5
Aircraft DH8D/M-SDE2E3FGRY/H

Departure

Time 2026-04-30 08:42
Airport Comodoro Arturo Merino Benítez International Airport (SCEL)

Arrival

Time 2026-04-30 09:39
Airport La Florida Airport (SCSE)
Time Latitude Longitude Altitude Speed Heading
2026-04-30 08:13 -33.39541 -70.79763 1564 ft 0 kts 180°
2026-04-30 08:30 -33.39523 -70.79763 1563 ft 3 kts 180°
2026-04-30 08:31 -33.39500 -70.79763 1563 ft 3 kts 180°
2026-04-30 08:31 -33.39478 -70.79763 1563 ft 3 kts 181°
2026-04-30 08:31 -33.39455 -70.79762 1563 ft 3 kts 181°
2026-04-30 08:31 -33.39440 -70.79769 1563 ft 0 kts 131°
2026-04-30 08:35 -33.39442 -70.79766 1563 ft 2 kts 124°
2026-04-30 08:35 -33.39432 -70.79719 1563 ft 10 kts 71°
2026-04-30 08:35 -33.39426 -70.79609 1563 ft 17 kts 90°
2026-04-30 08:36 -33.39427 -70.79441 1563 ft 22 kts 90°
2026-04-30 08:36 -33.39427 -70.79244 1563 ft 25 kts 91°
2026-04-30 08:36 -33.39386 -70.79158 1563 ft 12 kts 356°
2026-04-30 08:36 -33.39331 -70.79158 1563 ft 6 kts 19°
2026-04-30 08:37 -33.39305 -70.79099 1563 ft 12 kts 75°
2026-04-30 08:37 -33.39274 -70.79004 1563 ft 14 kts 50°
2026-04-30 08:37 -33.39194 -70.78905 1563 ft 20 kts 44°
2026-04-30 08:37 -33.39058 -70.78861 1563 ft 24 kts 358°
2026-04-30 08:38 -33.38869 -70.78872 1563 ft 30 kts 358°
2026-04-30 08:38 -33.38650 -70.78882 1563 ft 32 kts 357°
2026-04-30 08:38 -33.38451 -70.78895 1563 ft 28 kts 358°
2026-04-30 08:38 -33.38240 -70.78908 1563 ft 33 kts 357°
2026-04-30 08:39 -33.37997 -70.78924 1563 ft 36 kts 357°
2026-04-30 08:39 -33.37779 -70.78937 1563 ft 24 kts 357°
2026-04-30 08:39 -33.37661 -70.78856 1563 ft 20 kts 77°
2026-04-30 08:39 -33.37662 -70.78766 1563 ft 0 kts 107°
2026-04-30 08:40 -33.37665 -70.78756 1563 ft 6 kts 107°
2026-04-30 08:40 -33.37689 -70.78672 1563 ft 13 kts 127°
2026-04-30 08:40 -33.37729 -70.78663 1563 ft 1 kts 172°
2026-04-30 08:41 -33.37731 -70.78663 1563 ft 0 kts 179°
2026-04-30 08:42 -33.37907 -70.78654 1563 ft 65 kts 177°
2026-04-30 08:42 -33.38613 -70.78611 1564 ft 135 kts 178°
2026-04-30 08:42 -33.39619 -70.78567 2093 ft 144 kts 177°
2026-04-30 08:42 -33.40655 -70.78514 2811 ft 149 kts 176°
2026-04-30 08:43 -33.41746 -70.78455 3432 ft 162 kts 176°
2026-04-30 08:43 -33.42934 -70.78389 3973 ft 177 kts 176°
2026-04-30 08:43 -33.44226 -70.78316 4646 ft 186 kts 176°
2026-04-30 08:43 -33.45502 -70.78244 5322 ft 191 kts 176°
2026-04-30 08:44 -33.46836 -70.78174 6031 ft 194 kts 176°
2026-04-30 08:44 -33.48253 -70.78108 6774 ft 196 kts 176°
2026-04-30 08:44 -33.49632 -70.77983 7322 ft 205 kts 162°
2026-04-30 08:44 -33.50830 -70.77091 7835 ft 202 kts 124°
2026-04-30 08:45 -33.51305 -70.75615 8666 ft 191 kts 90°
2026-04-30 08:45 -33.50943 -70.74120 9366 ft 192 kts 55°
2026-04-30 08:45 -33.49877 -70.73170 10007 ft 198 kts 23°
2026-04-30 08:45 -33.48531 -70.72765 10664 ft 201 kts 12°
2026-04-30 08:46 -33.47169 -70.72481 11330 ft 200 kts 11°
2026-04-30 08:46 -33.45806 -70.72184 11997 ft 199 kts 11°
2026-04-30 08:46 -33.44480 -70.71879 12636 ft 198 kts 10°
2026-04-30 08:46 -33.43152 -70.71558 13248 ft 198 kts
2026-04-30 08:47 -33.41812 -70.71218 13814 ft 200 kts
2026-04-30 08:47 -33.40452 -70.70873 14367 ft 202 kts
2026-04-30 08:47 -33.39106 -70.70554 14899 ft 204 kts
2026-04-30 08:47 -33.37704 -70.70252 15408 ft 207 kts
2026-04-30 08:48 -33.36739 -70.70061 15740 ft 209 kts
2026-04-30 08:48 -33.35302 -70.69792 16220 ft 212 kts
2026-04-30 08:48 -33.33828 -70.69533 16679 ft 215 kts
2026-04-30 08:48 -33.32352 -70.69572 17113 ft 210 kts 341°
2026-04-30 08:49 -33.31046 -70.70313 17549 ft 209 kts 322°
2026-04-30 08:49 -33.29920 -70.71388 17974 ft 211 kts 316°
2026-04-30 08:49 -33.28810 -70.72575 18390 ft 213 kts 315°
2026-04-30 08:49 -33.27732 -70.73792 18784 ft 215 kts 313°
2026-04-30 08:50 -33.26684 -70.75062 19162 ft 217 kts 311°
2026-04-30 08:50 -33.25662 -70.76368 19558 ft 217 kts 309°
2026-04-30 08:50 -33.24671 -70.77693 19937 ft 218 kts 308°
2026-04-30 08:50 -33.23685 -70.79061 20298 ft 220 kts 308°
2026-04-30 08:51 -33.22700 -70.80449 20660 ft 221 kts 307°
2026-04-30 08:51 -33.21694 -70.81871 21030 ft 221 kts 307°
2026-04-30 08:51 -33.20694 -70.83280 21394 ft 222 kts 307°
2026-04-30 08:51 -33.19702 -70.84673 21745 ft 222 kts 307°
2026-04-30 08:52 -33.18716 -70.86054 22084 ft 222 kts 307°
2026-04-30 08:52 -33.17711 -70.87456 22417 ft 223 kts 307°
2026-04-30 08:52 -33.16726 -70.88831 22732 ft 223 kts 307°
2026-04-30 08:52 -33.15747 -70.90196 23035 ft 223 kts 307°
2026-04-30 08:53 -33.14748 -70.91589 23335 ft 223 kts 307°
2026-04-30 08:53 -33.13751 -70.92977 23621 ft 224 kts 307°
2026-04-30 08:53 -33.12744 -70.94379 23901 ft 224 kts 307°
2026-04-30 08:53 -33.11749 -70.95766 24102 ft 228 kts 307°
2026-04-30 08:54 -33.10701 -70.97227 24175 ft 235 kts 307°
2026-04-30 08:54 -33.09632 -70.98721 24218 ft 243 kts 307°
2026-04-30 08:54 -33.08529 -71.00260 24233 ft 250 kts 308°
2026-04-30 08:54 -33.07367 -71.01879 24239 ft 257 kts 308°
2026-04-30 08:55 -33.06192 -71.03511 24241 ft 264 kts 308°
2026-04-30 08:55 -33.05001 -71.05165 24241 ft 269 kts 308°
2026-04-30 08:55 -33.03803 -71.06827 24241 ft 274 kts 308°
2026-04-30 08:55 -33.02550 -71.08564 24241 ft 278 kts 308°
2026-04-30 08:56 -33.01288 -71.10310 24241 ft 282 kts 308°
2026-04-30 08:56 -33.00016 -71.12070 24220 ft 286 kts 308°
2026-04-30 08:56 -32.98721 -71.13862 24182 ft 290 kts 308°
2026-04-30 08:56 -32.97422 -71.15655 24167 ft 293 kts 309°
2026-04-30 08:57 -32.95870 -71.17305 24158 ft 300 kts 323°
2026-04-30 08:57 -32.93961 -71.18308 24160 ft 309 kts 339°
2026-04-30 08:57 -32.91820 -71.18772 24160 ft 316 kts 347°
2026-04-30 08:57 -32.89674 -71.18983 24159 ft 319 kts 350°
2026-04-30 08:58 -32.87487 -71.19123 24158 ft 321 kts 351°
2026-04-30 08:58 -32.85296 -71.19217 24157 ft 323 kts 352°
2026-04-30 08:58 -32.83055 -71.19279 24157 ft 324 kts 352°
2026-04-30 08:58 -32.80889 -71.19519 24156 ft 320 kts 345°
2026-04-30 08:59 -32.78762 -71.20063 24157 ft 318 kts 341°
2026-04-30 08:59 -32.76624 -71.20703 24157 ft 319 kts 340°
2026-04-30 08:59 -32.74382 -71.21361 24158 ft 319 kts 341°
2026-04-30 08:59 -32.72300 -71.21950 24157 ft 319 kts 342°
2026-04-30 09:00 -32.70233 -71.22512 24156 ft 319 kts 342°
2026-04-30 09:00 -32.68144 -71.23059 24156 ft 320 kts 342°
2026-04-30 09:00 -32.66013 -71.23617 24156 ft 320 kts 342°
2026-04-30 09:00 -32.63851 -71.24191 24156 ft 321 kts 342°
2026-04-30 09:01 -32.61671 -71.24775 24157 ft 322 kts 342°
2026-04-30 09:01 -32.59524 -71.25353 24157 ft 322 kts 342°
2026-04-30 09:01 -32.57348 -71.25941 24157 ft 323 kts 342°
2026-04-30 09:01 -32.55180 -71.26535 24157 ft 323 kts 342°
2026-04-30 09:02 -32.50852 -71.27706 24157 ft 324 kts 342°
2026-04-30 09:02 -32.48678 -71.28288 24157 ft 324 kts 342°
2026-04-30 09:02 -32.46503 -71.28868 24157 ft 325 kts 342°
2026-04-30 09:03 -32.44355 -71.29440 24157 ft 325 kts 342°
2026-04-30 09:03 -32.42184 -71.30020 24157 ft 325 kts 342°
2026-04-30 09:03 -32.39996 -71.30606 24157 ft 325 kts 342°
2026-04-30 09:03 -32.37833 -71.31186 24157 ft 325 kts 342°
2026-04-30 09:04 -32.35662 -71.31769 24157 ft 325 kts 342°
2026-04-30 09:04 -32.33526 -71.32342 24157 ft 325 kts 342°
2026-04-30 09:04 -32.31364 -71.32922 24157 ft 326 kts 342°
2026-04-30 09:04 -32.29181 -71.33507 24157 ft 326 kts 342°
2026-04-30 09:05 -32.26998 -71.34091 24157 ft 326 kts 342°
2026-04-30 09:05 -32.24841 -71.34668 24157 ft 326 kts 342°
2026-04-30 09:05 -32.22663 -71.35251 24157 ft 326 kts 342°
2026-04-30 09:05 -32.20522 -71.35829 24156 ft 326 kts 342°
2026-04-30 09:06 -32.18294 -71.36450 24157 ft 326 kts 342°
2026-04-30 09:06 -32.16096 -71.37055 24157 ft 326 kts 343°
2026-04-30 09:06 -32.13917 -71.37634 24157 ft 327 kts 343°
2026-04-30 09:06 -32.11702 -71.38210 24157 ft 327 kts 343°
2026-04-30 09:07 -32.09486 -71.38785 24157 ft 327 kts 343°
2026-04-30 09:07 -32.07284 -71.39361 24157 ft 328 kts 343°
2026-04-30 09:07 -32.05094 -71.39940 24157 ft 328 kts 343°
2026-04-30 09:07 -32.02851 -71.40534 24157 ft 328 kts 343°
2026-04-30 09:08 -32.00664 -71.41115 24157 ft 328 kts 343°
2026-04-30 09:08 -31.98432 -71.41709 24157 ft 328 kts 343°
2026-04-30 09:08 -31.96212 -71.42299 24157 ft 328 kts 343°
2026-04-30 09:08 -31.93995 -71.42889 24157 ft 328 kts 343°
2026-04-30 09:09 -31.91785 -71.43475 24157 ft 328 kts 343°
2026-04-30 09:09 -31.89568 -71.44064 24157 ft 328 kts 343°
2026-04-30 09:09 -31.87362 -71.44649 24157 ft 328 kts 343°
2026-04-30 09:09 -31.85113 -71.45245 24157 ft 328 kts 343°
2026-04-30 09:10 -31.82916 -71.45828 24157 ft 328 kts 343°
2026-04-30 09:10 -31.80668 -71.46423 24157 ft 328 kts 343°
2026-04-30 09:10 -31.78452 -71.47010 24157 ft 328 kts 343°
2026-04-30 09:10 -31.76246 -71.47593 24157 ft 328 kts 343°
2026-04-30 09:11 -31.73989 -71.48191 24157 ft 328 kts 343°
2026-04-30 09:11 -31.71758 -71.48670 24156 ft 331 kts 349°
2026-04-30 09:11 -31.69496 -71.48787 24157 ft 333 kts 356°
2026-04-30 09:11 -31.67218 -71.48716 24157 ft 334 kts 358°
2026-04-30 09:12 -31.64937 -71.48629 24157 ft 333 kts 358°
2026-04-30 09:12 -31.62602 -71.48567 24157 ft 333 kts 357°
2026-04-30 09:12 -31.61087 -71.48541 24157 ft 333 kts 357°
2026-04-30 09:12 -31.58031 -71.48509 24157 ft 332 kts 357°
2026-04-30 09:13 -31.55780 -71.48491 24157 ft 332 kts 356°
2026-04-30 09:13 -31.53538 -71.48475 24157 ft 332 kts 356°
2026-04-30 09:13 -31.51997 -71.48463 24157 ft 332 kts 356°
2026-04-30 09:13 -31.48953 -71.48437 24157 ft 332 kts 357°
2026-04-30 09:14 -31.47425 -71.48423 24157 ft 332 kts 357°
2026-04-30 09:14 -31.45128 -71.48402 24157 ft 331 kts 357°
2026-04-30 09:14 -31.42834 -71.48375 24157 ft 331 kts 356°
2026-04-30 09:14 -31.40508 -71.48304 24157 ft 331 kts 356°
2026-04-30 09:15 -31.38204 -71.48234 24157 ft 329 kts 355°
2026-04-30 09:15 -31.35975 -71.48208 24156 ft 328 kts 355°
2026-04-30 09:15 -31.33718 -71.48260 24156 ft 327 kts 354°
2026-04-30 09:15 -31.31456 -71.48333 24156 ft 328 kts 355°
2026-04-30 09:16 -31.29200 -71.48364 24156 ft 328 kts 356°
2026-04-30 09:16 -31.26950 -71.48347 24156 ft 329 kts 357°
2026-04-30 09:16 -31.24683 -71.48296 24199 ft 328 kts 358°
2026-04-30 09:16 -31.22415 -71.48237 24223 ft 327 kts 358°
2026-04-30 09:17 -31.20169 -71.48190 24232 ft 327 kts 357°
2026-04-30 09:17 -31.17978 -71.48160 24236 ft 326 kts 357°
2026-04-30 09:17 -31.15726 -71.48137 24238 ft 326 kts 357°
2026-04-30 09:17 -31.13447 -71.48117 24238 ft 326 kts 357°
2026-04-30 09:18 -31.11226 -71.48097 24238 ft 326 kts 357°
2026-04-30 09:18 -31.08969 -71.48078 24239 ft 326 kts 357°
2026-04-30 09:18 -31.06722 -71.48058 24239 ft 326 kts 357°
2026-04-30 09:18 -31.04480 -71.48038 24239 ft 325 kts 357°
2026-04-30 09:19 -31.02206 -71.48017 24239 ft 325 kts 357°
2026-04-30 09:19 -31.00000 -71.47997 24239 ft 325 kts 357°
2026-04-30 09:19 -30.97751 -71.47977 24239 ft 325 kts 357°
2026-04-30 09:19 -30.95525 -71.47957 24239 ft 325 kts 357°
2026-04-30 09:20 -30.93294 -71.47937 24239 ft 325 kts 357°
2026-04-30 09:20 -30.91067 -71.47917 24239 ft 325 kts 357°
2026-04-30 09:20 -30.88837 -71.47897 24239 ft 325 kts 357°
2026-04-30 09:20 -30.86618 -71.47878 24239 ft 325 kts 357°
2026-04-30 09:21 -30.84417 -71.47858 24239 ft 325 kts 357°
2026-04-30 09:21 -30.82176 -71.47838 24239 ft 325 kts 357°
2026-04-30 09:21 -30.79978 -71.47819 24239 ft 325 kts 357°
2026-04-30 09:21 -30.77739 -71.47799 24239 ft 325 kts 357°
2026-04-30 09:22 -30.75526 -71.47778 24048 ft 327 kts 357°
2026-04-30 09:22 -30.73275 -71.47757 23590 ft 325 kts 357°
2026-04-30 09:22 -30.71077 -71.47742 23244 ft 323 kts 357°
2026-04-30 09:22 -30.68826 -71.47739 22869 ft 328 kts 357°
2026-04-30 09:23 -30.66583 -71.47734 22410 ft 328 kts 358°
2026-04-30 09:23 -30.64342 -71.47719 21963 ft 326 kts 358°
2026-04-30 09:23 -30.62104 -71.47696 21517 ft 324 kts 359°
2026-04-30 09:23 -30.59837 -71.47667 21065 ft 322 kts 359°
2026-04-30 09:24 -30.57690 -71.47640 20637 ft 321 kts 359°
2026-04-30 09:24 -30.55474 -71.47567 20266 ft 318 kts
2026-04-30 09:24 -30.53366 -71.46979 19910 ft 320 kts 20°
2026-04-30 09:24 -30.51483 -71.45651 19484 ft 323 kts 36°
2026-04-30 09:25 -30.49824 -71.43878 19027 ft 326 kts 43°
2026-04-30 09:25 -30.48303 -71.42027 18579 ft 326 kts 45°
2026-04-30 09:25 -30.46781 -71.40124 18125 ft 327 kts 45°
2026-04-30 09:25 -30.45271 -71.38218 17673 ft 327 kts 45°
2026-04-30 09:26 -30.43752 -71.36293 17224 ft 327 kts 45°
2026-04-30 09:26 -30.42213 -71.34342 16796 ft 326 kts 45°
2026-04-30 09:26 -30.40668 -71.32390 16352 ft 329 kts 45°
2026-04-30 09:26 -30.39145 -71.30465 15903 ft 328 kts 45°
2026-04-30 09:27 -30.37667 -71.28601 15468 ft 326 kts 45°
2026-04-30 09:27 -30.36166 -71.26714 15024 ft 324 kts 45°
2026-04-30 09:27 -30.34677 -71.24843 14582 ft 322 kts 45°
2026-04-30 09:27 -30.33171 -71.22953 14135 ft 320 kts 45°
2026-04-30 09:28 -30.31675 -71.21071 13689 ft 318 kts 45°
2026-04-30 09:28 -30.30232 -71.19253 13257 ft 316 kts 45°
2026-04-30 09:28 -30.28748 -71.17391 12815 ft 313 kts 45°
2026-04-30 09:28 -30.27294 -71.15574 12383 ft 310 kts 45°
2026-04-30 09:29 -30.25846 -71.13768 11952 ft 307 kts 45°
2026-04-30 09:29 -30.24423 -71.11993 11529 ft 304 kts 45°
2026-04-30 09:29 -30.23011 -71.10205 11106 ft 301 kts 46°
2026-04-30 09:29 -30.21642 -71.08422 10688 ft 297 kts 46°
2026-04-30 09:30 -30.20299 -71.06651 10276 ft 293 kts 46°
2026-04-30 09:30 -30.18971 -71.04903 9870 ft 290 kts 46°
2026-04-30 09:30 -30.17668 -71.03196 9471 ft 286 kts 46°
2026-04-30 09:30 -30.16376 -71.01513 9075 ft 275 kts 46°
2026-04-30 09:31 -30.15147 -70.99920 8700 ft 263 kts 46°
2026-04-30 09:31 -30.13959 -70.98383 8339 ft 253 kts 47°
2026-04-30 09:31 -30.12723 -70.97022 7996 ft 243 kts 36°
2026-04-30 09:31 -30.11355 -70.96045 7663 ft 231 kts 27°
2026-04-30 09:32 -30.09987 -70.95239 7342 ft 218 kts 26°
2026-04-30 09:32 -30.08680 -70.94494 7097 ft 211 kts 26°
2026-04-30 09:32 -30.07354 -70.93749 6791 ft 213 kts 25°
2026-04-30 09:32 -30.06016 -70.93483 6682 ft 206 kts 355°
2026-04-30 09:33 -30.04698 -70.94021 6414 ft 202 kts 330°
2026-04-30 09:33 -30.03613 -70.95011 6058 ft 194 kts 318°
2026-04-30 09:33 -30.02737 -70.96103 5771 ft 188 kts 311°
2026-04-30 09:33 -30.01959 -70.97242 5471 ft 183 kts 308°
2026-04-30 09:34 -30.01247 -70.98398 5183 ft 179 kts 305°
2026-04-30 09:34 -30.00574 -70.99606 4896 ft 180 kts 303°
2026-04-30 09:34 -29.99935 -71.00832 4605 ft 180 kts 301°
2026-04-30 09:34 -29.99327 -71.02077 4314 ft 181 kts 299°
2026-04-30 09:35 -29.98746 -71.03342 4018 ft 178 kts 298°
2026-04-30 09:35 -29.98191 -71.04608 3729 ft 178 kts 297°
2026-04-30 09:35 -29.97644 -71.05888 3438 ft 178 kts 297°
2026-04-30 09:35 -29.97105 -71.07162 3149 ft 179 kts 297°
2026-04-30 09:36 -29.96569 -71.08429 2859 ft 178 kts 297°
2026-04-30 09:36 -29.96030 -71.09698 2568 ft 176 kts 297°
2026-04-30 09:36 -29.95524 -71.10888 2308 ft 157 kts 297°
2026-04-30 09:36 -29.95045 -71.12010 2050 ft 157 kts 297°
2026-04-30 09:37 -29.94597 -71.13055 1802 ft 151 kts 297°
2026-04-30 09:37 -29.94155 -71.14087 1548 ft 140 kts 297°
2026-04-30 09:37 -29.93749 -71.15036 1321 ft 132 kts 296°
2026-04-30 09:37 -29.93344 -71.15966 1089 ft 131 kts 297°
2026-04-30 09:38 -29.92932 -71.16890 879 ft 130 kts 296°
2026-04-30 09:38 -29.92560 -71.17801 720 ft 125 kts 294°
2026-04-30 09:38 -29.92194 -71.18678 587 ft 121 kts 297°
2026-04-30 09:38 -29.91837 -71.19510 489 ft 103 kts 297°
2026-04-30 09:39 -29.91654 -71.19929 489 ft 28 kts 296°
2026-04-30 09:39 -29.91608 -71.20052 489 ft 6 kts 281°
2026-04-30 09:39 -29.91606 -71.20066 489 ft 4 kts 274°
2026-04-30 09:39 -29.91592 -71.20070 489 ft 6 kts 84°
2026-04-30 09:40 -29.91618 -71.19999 489 ft 11 kts 114°
2026-04-30 09:40 -29.91652 -71.19913 489 ft 13 kts 115°
2026-04-30 09:40 -29.91696 -71.19815 489 ft 15 kts 118°
2026-04-30 09:40 -29.91744 -71.19705 489 ft 12 kts 116°
2026-04-30 09:41 -29.91802 -71.19659 489 ft 11 kts 191°
2026-04-30 09:41 -29.91826 -71.19672 489 ft 0 kts 171°